SCP
0 0 0 0 0 0 0 0 0 0 0 0 0 0 0 0 0 0 0 0 1 1 1 1 1 1 1 2 2 2 2 2 2 1 1 1 1 1 1 1 1 1 1 1
0 0 0 0 0 0 0 0 0 0 0 0 0 0 0 0 0 0 0 0 1 1 1 1 1 1 1 2 2 2 2 2 2 1 1 1 1 1 1 1 1 1 1 1
-0 0 0 0 0 0 0 0 0 0 0 0 0 0 0 0 0 0 0 0 1 1 1 1 1 1 1 2 2 2 2 2 2 1 1 1 1 1 1 1 1 1 1 1
0 0 0 0 0 0 0 0 0 0 0 0 0 0 0 0 0 0 0 0 1 1 1 1 1 1 1 1 2 2 2 2 2 1 1 1 1 1 1 1 1 1 1 1
0 0 0 0 0 0 0 0 0 0 0 0 0 0 0 0 0 0 0 0 1 1 1 1 1 1 1 1 1 2 2 2 2 1 1 1 1 1 1 1 1 1 1 1
0 0 0 0 0 0 0 0 0 0 0 0 0 0 0 0 0 0 0 0 1 1 1 1 1 1 1 1 1 1 2 2 2 1 1 1 1 1 1 1 1 1 1 1
0 0 0 0 0 0 0 0 0 0 0 0 0 0 0 0 0 0 0 1 1 1 1 1 1 1 1 1 1 1 2 2 1 1 1 1 1 1 1 1 1 1 1 1
0 0 0 0 0 0 0 0 0 0 0 0 0 0 0 0 0 0 0 1 1 1 1 1 1 1 1 1 1 1 1 1 1 1 1 1 1 1 1 1 1 1 1 1
0 0 0 0 0 0 0 0 0 0 0 0 0 0 0 0 0 0 0 1 1 1 1 1 1 1 1 1 1 1 1 1 1 1 1 1 1 1 1 1 1 1 0 0
0 0 0 0 0 0 0 0 0 0 0 0 0 0 0 0 0 0 0 1 1 1 1 1 1 1 1 1 1 1 1 1 1 1 1 1 1 1 1 1 1 1 0 0
0 0 0 0 0 0 0 0 0 0 0 0 0 0 0 0 0 0 0 1 1 1 1 1 1 1 1 1 1 1 1 1 1 1 1 1 1 1 1 1 1 1 0 0
0 0 0 0 0 0 0 0 0 0 0 0 0 0 0 0 0 0 1 1 1 1 1 1 1 1 1 1 1 1 1 1 1 1 1 1 1 1 1 1 1 1 1 0
0 0 0 0 0 0 0 0 0 0 0 0 0 0 0 0 0 1 1 1 1 1 1 1 1 1 1 1 1 1 1 1 1 1 1 1 1 1 1 1 1 1 0 0
0 0 0 0 0 0 0 0 0 0 0 0 0 0 0 0 0 1 1 1 1 1 1 1 1 1 1 1 1 1 1 1 1 1 1 1 1 1 1 1 1 0 0 0
0 0 0 0 0 0 0 0 0 0 0 0 0 0 0 0 0 1 1 1 1 1 1 1 1 1 1 1 1 1 1 1 1 1 1 1 1 1 1 1 1 0 0 0
0 0 0 0 0 0 0 0 0 0 0 0 0 0 0 0 0 0 0 0 0 1 1 1 1 1 1 1 1 1 1 1 1 1 1 1 1 1 0 0 0 0 0 0
0 0 0 0 0 0 0 0 0 0 0 0 0 0 0 0 0 0 0 0 0 1 1 1 1 1 1 1 1 1 1 0 0 0 0 1 1 0 0 0 0 0 0 0
0 0 0 0 0 0 0 0 0 0 0 0 0 0 0 0 0 0 0 0 0 1 1 1 1 1 1 1 1 1 1 0 0 0 0 0 0 0 1 0 0 1 0 0
0 0 0 0 0 0 0 0 0 0 0 0 0 0 0 0 0 0 0 0 1 1 1 1 1 1 1 1 1 1 1 0 0 0 0 0 0 0 1 1 1 1 0 0
0 0 0 0 0 0 0 0 0 0 0 0 0 0 0 0 0 0 0 1 1 1 1 1 1 1 1 1 1 1 1 0 0 0 0 0 0 0 0 0 1 0 0 0
0 0 0 0 0 0 0 0 0 0 0 0 0 0 0 0 0 0 0 1 1 1 1 1 1 1 1 1 1 1 1 0 0 0 0 0 0 0 0 0 0 0 0 0
0 0 0 0 0 0 0 0 0 0 0 0 0 0 0 1 1 0 1 1 1 1 1 1 1 1 1 1 1 1 1 1 0 0 0 0 0 0 0 0 0 0 0 0
0 0 0 0 0 0 0 0 0 0 0 0 0 0 0 1 0 0 1 1 1 1 1 1 1 1 1 1 1 1 1 1 0 0 0 0 0 0 0 0 0 0 0 0
0 0 0 0 0 0 0 0 0 0 0 0 0 0 0 0 0 1 1 1 1 1 1 1 1 1 1 1 1 1 1 1 0 0 0 0 0 0 0 0 0 0 0 0
0 0 0 0 0 0 0 0 0 0 0 0 0 0 0 0 1 1 1 1 1 1 1 1 1 1 1 1 1 1 1 0 0 0 0 0 0 0 0 0 0 0 0 0
0 0 0 0 0 0 0 0 0 0 0 0 0 0 0 1 1 1 1 1 1 1 1 1 1 1 1 1 1 1 1 0 0 0 0 0 0 0 0 0 0 0 0 0
Wind_Speed
13 13 12 13 14 14 11 8 8 6 6 6 6 5 7 7 6 6 7 9 10 10 9 9 8 8 8 7 6 5 4 4 2 1 1 1 1 1 1 1 1 0 0 0
12 15 14 12 12 11 11 9 9 7 5 4 4 5 7 8 8 7 8 8 9 10 10 9 8 8 8 7 6 5 4 4 2 1 1 1 1 1 1 1 1 1 0 0
14 11 11 11 10 10 12 11 11 6 3 4 5 7 8 9 8 8 8 9 10 10 11 11 9 8 8 7 6 5 4 4 2 1 1 0 1 1 1 1 1 0 0 0
12 10 7 9 10 10 11 10 7 7 7 6 8 7 9 9 9 9 9 9 10 9 10 11 10 8 7 7 7 6 5 4 2 2 1 1 1 1 0 0 1 1 0 0
10 9 9 10 9 9 10 7 7 10 10 10 10 8 6 9 8 8 8 8 9 10 11 10 9 8 7 7 7 6 5 4 3 2 2 1 1 0 0 0 1 1 1 1
12 9 9 8 7 8 9 8 9 10 9 12 10 8 7 6 8 8 7 8 9 9 11 9 8 8 7 6 6 6 5 4 2 2 2 2 1 0 0 0 0 1 1 1
12 11 9 8 9 8 9 8 6 8 9 11 9 8 3 4 5 8 8 9 10 9 9 9 9 7 7 7 6 6 6 4 3 3 2 2 1 1 0 0 0 1 1 2
10 10 9 8 9 7 9 11 8 8 8 6 4 4 2 4 4 7 8 8 10 9 9 9 8 7 7 7 6 6 5 4 3 3 3 2 1 1 0 0 1 1 1 1
6 5 7 7 8 9 9 9 9 10 10 8 5 1 2 5 4 5 6 6 7 8 8 8 8 8 7 7 6 6 5 4 3 3 3 2 2 1 1 1 0 0 0 1
7 7 6 7 8 10 10 8 6 7 7 8 6 4 3 4 4 4 5 5 5 6 6 6 7 7 7 6 6 6 5 4 3 3 2 2 1 1 1 1 1 0 1 1
5 6 7 7 8 8 8 9 6 6 7 7 6 1 2 5 4 4 4 4 5 6 5 5 6 7 7 7 6 6 5 4 3 3 3 2 1 1 1 1 0 0 1 0
4 5 7 8 6 6 8 8 7 6 6 7 7 1 3 5 5 4 4 4 4 5 6 6 7 6 5 6 6 5 4 4 3 3 3 2 1 1 1 0 0 0 0 0
2 4 7 7 6 4 6 7 7 7 6 6 7 1 3 4 5 4 5 5 4 4 5 6 6 6 4 4 4 5 4 3 3 3 3 3 1 1 0 0 0 0 0 0
4 6 7 6 5 6 8 8 8 7 6 6 5 2 0 3 5 4 4 5 3 4 5 5 5 5 4 4 4 3 3 3 3 3 3 3 2 1 0 0 0 0 0 0
4 7 8 7 7 8 8 9 8 7 8 7 4 2 2 2 4 2 3 4 3 3 4 4 5 5 4 4 4 3 3 3 3 3 3 2 1 1 1 0 0 0 1 1
3 6 8 8 8 11 11 9 9 9 7 5 2 2 3 3 3 2 2 3 3 3 3 4 5 5 4 3 3 3 3 2 2 2 2 2 1 1 1 1 0 1 1 1
4 6 9 9 10 12 10 7 7 4 5 4 2 2 3 3 3 3 3 2 2 3 3 3 3 3 3 3 3 2 2 2 1 1 2 2 1 1 1 0 1 0 1 1
5 6 6 9 9 11 4 1 1 2 3 3 3 4 4 3 3 3 3 2 2 3 3 3 3 3 3 3 3 3 2 1 1 1 1 1 1 0 1 1 0 0 0 1
5 5 6 7 9 6 4 1 2 2 1 3 3 3 3 3 3 4 5 4 3 4 4 3 2 3 3 3 3 3 2 2 1 1 1 1 1 0 0 0 0 0 1 1
7 5 6 8 9 7 2 3 3 2 2 2 2 2 1 0 0 2 3 3 4 4 4 3 3 4 3 3 3 3 2 1 1 1 1 1 1 0 1 1 1 1 1 2
7 7 9 9 8 3 4 4 3 2 2 5 4 3 2 4 3 3 2 3 3 3 4 4 3 3 3 3 3 2 2 1 1 1 2 2 1 0 0 0 1 1 2 2
6 6 6 7 8 2 3 2 3 4 5 5 5 5 5 5 5 4 2 2 3 3 3 3 3 3 3 3 2 2 2 1 1 2 2 3 2 2 1 0 1 2 2 2
2 2 2 1 1 4 5 6 4 3 4 4 5 5 4 3 3 3 2 2 3 2 2 2 3 3 3 2 2 2 1 1 1 2 2 2 2 2 1 1 2 2 2 2
1 1 2 1 3 4 4 4 2 2 2 2 3 3 2 1 2 3 2 2 2 1 2 2 2 2 2 2 2 2 1 1 1 1 1 1 1 1 1 1 1 1 1 2
4 2 4 3 1 1 1 2 2 2 2 2 2 1 1 1 2 2 2 2 1 1 1 1 1 1 1 2 2 2 2 1 0 1 1 2 2 1 0 1 1 1 0 1
3 3 3 1 1 2 1 2 2 1 2 2 1 1 2 2 2 1 1 1 1 1 1 1 0 1 1 1 1 1 1 1 1 2 2 2 2 1 1 1 0 1 1 3
Wind_Direction
217 225 231 232 234 244 260 270 268 249 209 204 192 198 198 203 190 172 162 159 154 154 148 137 136 134 127 123 123 125 122 109 124 140 156 163 187 188 134 129 82 105 347 319
223 227 238 243 247 252 264 260 263 245 213 217 203 213 207 202 190 176 172 164 157 154 140 131 136 132 129 129 130 128 123 121 142 134 167 187 177 182 154 101 74 50 341 308
231 232 227 242 245 250 255 252 249 249 228 237 233 250 231 204 189 181 180 169 163 159 148 146 154 145 141 138 139 138 131 135 143 129 168 107 70 6 66 113 113 74 290 302
241 244 232 240 247 245 252 259 266 261 245 245 231 238 215 200 191 186 184 176 165 161 154 157 154 148 144 144 142 134 132 133 137 153 170 161 147 191 239 143 128 153 226 2
241 236 235 240 243 248 264 277 269 259 259 259 242 248 226 193 188 191 184 172 163 156 154 156 149 149 147 142 141 138 132 138 153 171 168 185 159 190 98 94 110 124 96 65
249 241 239 246 249 249 263 265 264 259 257 254 248 250 235 195 186 180 187 165 159 154 147 144 140 142 140 136 133 133 134 144 158 176 172 180 183 204 152 77 79 95 78 45
240 234 223 227 245 237 242 249 250 245 232 238 235 243 202 146 164 165 181 167 156 149 142 141 146 151 144 141 136 138 138 147 155 162 171 179 173 179 166 25 66 36 59 52
234 228 214 220 235 245 242 245 248 265 277 283 249 250 167 121 136 143 147 149 154 151 147 148 153 151 146 141 136 136 137 145 148 153 162 164 163 175 106 18 15 62 58 73
278 239 199 219 231 239 249 253 262 264 269 276 259 207 171 114 128 139 139 142 146 144 145 150 152 144 140 140 138 139 138 142 148 146 148 149 158 163 132 126 66 58 80 104
282 289 246 213 229 230 251 268 279 278 278 276 266 224 178 144 156 155 143 141 136 126 134 139 136 134 133 134 135 135 136 136 137 142 149 136 144 174 146 107 117 37 39 24
264 272 269 240 230 244 241 249 259 271 268 277 279 313 93 158 164 160 139 140 134 133 123 122 121 121 125 127 133 134 134 130 138 138 121 101 121 130 115 99 66 9 10 13
259 268 267 264 262 258 267 266 259 261 267 276 281 86 85 123 126 128 134 122 112 115 119 119 110 108 118 128 132 129 129 130 124 117 116 108 83 76 75 63 277 267 266 293
276 261 257 247 249 253 266 273 276 274 274 274 279 100 86 88 98 86 97 99 95 102 108 108 106 102 95 100 117 122 125 123 116 115 123 124 114 74 11 330 281 250 244 327
260 254 267 273 288 289 272 271 273 274 269 269 271 200 119 81 67 61 79 85 96 91 93 106 107 101 96 88 93 90 103 105 109 120 125 129 139 145 143 300 347 8 231 263
270 262 263 269 264 269 272 268 269 273 275 280 280 182 165 86 93 87 100 101 86 86 97 103 107 107 106 106 105 100 85 90 102 115 118 121 144 151 157 173 8 320 274 269
237 287 287 274 266 263 261 258 256 257 269 271 296 46 82 89 102 113 79 85 96 93 94 101 106 115 120 114 107 97 86 74 89 107 121 118 127 126 131 155 167 270 309 321
228 246 264 267 271 274 262 269 273 280 289 287 322 69 99 95 89 87 68 56 75 100 90 104 113 118 129 132 121 115 106 92 92 119 121 130 135 141 153 157 106 30 292 295
250 259 266 268 263 263 268 341 279 289 331 7 52 74 82 97 92 89 89 80 65 75 86 98 120 130 140 130 131 139 135 129 120 108 118 120 145 153 151 149 104 321 267 276
219 247 268 270 262 256 258 264 276 257 311 15 38 59 89 125 120 99 80 68 72 77 81 85 114 126 133 143 142 144 139 143 145 76 107 131 161 186 255 271 293 274 267 274
196 211 247 261 272 271 344 4 2 291 205 39 32 22 359 196 204 89 76 72 73 91 103 112 120 122 128 138 139 140 133 122 74 30 12 37 71 26 11 345 314 289 267 258
209 216 235 255 262 281 16 356 350 275 42 20 15 22 26 54 55 82 74 77 90 97 108 116 121 119 119 122 127 128 117 94 65 50 18 18 40 333 315 358 300 279 269 261
224 238 240 257 260 256 25 27 33 47 35 20 18 34 58 79 90 93 78 73 91 93 107 123 120 109 109 117 131 132 112 61 39 38 27 23 10 337 41 10 285 264 256 252
227 282 303 341 44 69 56 66 59 52 38 24 28 32 33 66 78 84 95 87 91 104 100 107 120 118 118 127 127 117 106 75 49 42 35 19 355 353 355 274 265 261 248 244
201 26 289 243 132 117 86 82 63 37 31 15 38 42 5 19 76 71 83 87 91 104 108 104 118 121 127 138 133 123 125 119 80 50 36 339 304 291 299 287 283 282 302 305
322 281 251 234 231 102 99 71 46 17 357 15 33 15 333 26 83 78 82 96 96 64 67 95 109 129 135 135 142 148 140 133 237 285 287 275 271 267 272 277 290 289 67 220
318 311 281 287 22 301 324 356 346 332 330 354 344 342 12 54 60 63 91 95 82 75 73 83 135 143 132 146 157 146 151 168 219 249 261 269 272 262 242 241 165 75 153 150